Location: Montamat
(43.4852°N, 0.8444°E)
Time: 07:57:29
(UTC+00:00)

CZ-4C R/B - Pass Details

Date: 14 May 2026
Orbit: 474 x 1503 km, 63.4° (Epoch: 6 June)

Event Time Altitude Azimuth Distance (km) Brightness Sun altitude
Rises 20:22:07 0° 251° (WSW) 2,715 5.3 -11.2°
Reaches altitude 10° 20:24:22 10° 264° (W) 1,925 4.7 -11.5°
Maximum altitude 20:28:06 28° 324° (NW) 1,285 4.1 -12.0°
Drops below altitude 10° 20:32:41 10° 22° (NNE) 2,400 4.8 -12.7°
Sets 20:35:51 0° 34° (NE) 3,537 5.6 -13.1°
